Wind_Speed
28 27 29 23 19 10 13 12 13 13 10 4 4 9 15 9 12 6 13 17 24 30 29 25 21 18 18 17 14 12 11 11 13 11 11 8 7 7 6 7 7 6 5 6
26 25 23 21 16 14 13 15 11 8 7 2 5 5 14 20 16 14 9 15 22 25 32 30 27 23 20 18 15 12 12 11 12 10 12 11 11 8 8 7 6 6 6 6
23 15 20 21 16 16 17 11 11 7 7 5 5 3 5 15 22 18 14 12 18 25 29 33 31 26 23 22 19 14 10 9 10 11 11 11 12 11 9 6 5 5 6 7
14 11 22 20 17 16 14 15 11 9 5 4 6 4 4 7 22 22 17 14 15 19 27 29 32 28 26 22 20 16 13 10 8 9 10 10 9 9 8 8 6 6 7 6
9 21 25 19 17 15 8 8 12 8 5 5 6 3 10 3 3 17 23 18 16 16 20 25 30 30 24 22 21 21 16 10 8 7 10 11 11 11 10 9 8 8 8 7
9 20 14 15 17 15 11 10 11 8 6 7 9 4 10 5 3 2 12 21 19 16 17 20 24 27 27 25 23 23 21 16 11 7 9 11 11 12 10 10 9 8 7 6
10 12 13 15 17 18 18 14 8 6 6 6 13 6 6 9 5 2 6 15 19 25 24 22 19 23 29 29 26 25 22 20 15 10 7 11 12 12 12 12 10 9 8 7
12 9 12 16 20 17 22 18 9 9 9 9 14 10 8 8 10 4 1 8 15 21 28 27 20 14 24 28 26 25 25 20 19 15 9 8 11 12 13 14 14 12 10 10
8 6 12 11 18 19 22 21 14 6 11 13 6 9 11 10 8 7 3 6 12 16 21 22 24 19 18 26 28 25 24 24 22 18 14 10 10 11 11 13 14 15 14 13
11 9 9 9 12 16 19 19 14 7 10 11 4 5 2 9 8 4 6 4 8 12 14 15 18 21 17 20 24 26 25 24 21 19 17 14 10 10 13 15 14 14 15 15
13 10 7 9 6 13 14 16 13 14 5 7 7 4 3 2 3 3 2 3 2 10 12 14 20 20 22 19 22 24 27 27 24 23 21 19 15 12 14 16 17 16 16 17
6 10 9 14 12 13 13 15 16 16 8 6 4 6 7 3 1 2 3 2 1 1 5 16 21 21 21 21 22 24 26 27 26 24 23 21 19 19 17 17 18 19 18 18
6 7 9 4 5 7 7 11 14 12 16 10 9 6 13 5 2 2 1 2 3 5 2 12 21 23 27 24 23 27 27 28 30 28 28 27 24 24 22 20 19 21 21 20
7 9 4 4 5 11 8 8 9 10 7 10 5 16 17 11 5 1 3 5 5 7 7 5 15 19 27 28 26 29 32 32 31 31 31 31 29 27 27 24 23 23 23 24
6 6 6 8 10 11 13 9 8 6 8 4 13 12 15 13 8 5 4 5 7 10 11 11 9 15 18 25 29 29 29 33 36 38 37 34 31 30 32 31 28 27 27 27
5 6 9 10 10 11 12 13 13 11 9 9 12 11 12 11 11 10 8 8 6 8 9 11 13 13 15 21 24 32 34 31 29 30 32 31 35 36 36 35 34 34 32 30
6 11 12 5 9 7 9 14 14 13 10 11 6 10 11 12 13 14 14 12 11 10 9 10 10 10 14 16 23 25 26 29 27 27 25 30 34 35 35 37 38 37 35 34
8 10 10 6 8 4 8 13 14 12 10 10 11 12 12 13 15 16 17 18 17 16 14 12 11 10 11 13 15 20 26 27 29 30 28 23 24 30 35 37 36 35 35 36
11 11 6 6 10 3 10 15 12 9 8 12 14 13 12 12 12 17 17 19 21 22 20 18 16 13 12 13 14 17 20 29 32 34 33 30 26 20 25 35 37 35 37 36
11 10 8 9 4 6 7 15 14 12 10 14 16 15 15 15 16 17 18 21 23 25 26 24 25 22 21 17 14 13 14 19 25 30 39 36 35 35 34 30 38 39 37 37
11 9 9 9 5 6 11 11 11 7 7 7 10 14 16 20 24 22 24 25 26 27 29 31 29 29 26 25 23 19 15 16 19 23 25 37 38 38 37 32 34 42 42 41
12 11 11 12 7 8 13 15 14 14 17 19 21 23 24 25 27 27 26 28 30 32 32 33 35 33 33 32 28 25 23 17 17 21 23 24 29 33 38 36 34 38 39 39
9 11 7 9 8 9 10 9 11 14 17 20 23 26 27 29 31 32 33 35 36 37 35 39 39 39 36 36 37 35 30 27 22 20 20 20 23 31 41 34 38 40 37 36
15 12 12 12 14 12 12 11 11 11 9 9 11 14 18 22 26 31 36 38 37 40 41 42 43 45 44 40 39 40 35 35 33 30 29 23 20 19 18 24 39 38 41 38
14 13 15 17 15 14 15 13 12 11 12 14 14 15 18 21 21 23 22 27 32 36 41 46 49 48 48 48 46 44 40 38 37 37 35 32 27 25 21 17 22 37 35 35
16 18 17 14 14 16 16 14 13 12 13 15 17 18 20 22 23 26 25 25 28 31 34 39 46 55 55 52 49 48 49 46 40 38 39 38 36 35 32 25 23 28 27 36
Wind_Direction
186 186 192 186 177 155 178 160 136 134 148 180 191 189 193 165 131 119 169 185 194 194 192 197 188 180 161 159 156 156 160 178 185 182 176 179 173 174 185 186 176 169 148 136
189 200 197 180 180 179 176 179 165 152 152 138 167 181 199 214 225 236 226 182 189 195 199 195 192 187 173 162 157 148 150 154 164 174 167 183 194 191 185 179 169 157 147 130
195 209 186 182 185 191 202 198 193 160 181 150 165 220 227 209 205 219 233 228 192 196 198 193 192 191 179 175 167 155 147 158 167 176 196 202 197 200 182 183 189 167 158 135
205 194 188 182 193 197 206 212 204 185 153 160 174 150 20 224 204 206 220 236 226 199 201 202 198 195 191 180 168 158 152 153 168 183 187 204 209 192 187 203 205 191 184 153
192 191 189 194 200 199 202 197 199 190 174 132 152 169 356 29 227 219 223 228 237 220 208 207 205 204 195 188 183 168 164 171 162 176 191 195 204 196 194 202 200 185 188 189
160 182 185 206 211 207 206 163 169 183 176 200 180 184 42 55 29 217 222 232 232 232 221 213 208 212 206 201 201 190 180 183 189 179 193 189 196 206 197 209 205 193 197 210
174 171 185 191 195 199 192 169 148 171 193 190 186 121 96 76 74 185 234 237 232 229 230 225 215 210 205 204 203 200 192 187 192 188 197 193 191 208 207 213 220 223 223 226
174 163 183 177 185 191 194 191 187 178 187 165 180 150 124 103 80 80 283 225 214 220 213 224 225 221 213 208 209 211 199 194 191 195 196 202 201 206 216 217 224 225 228 236
165 118 154 175 189 177 191 199 204 137 178 180 157 151 144 138 135 113 135 194 208 218 211 221 226 225 217 216 210 209 208 206 200 199 204 206 208 208 220 229 219 224 223 235
173 131 153 168 184 189 192 191 189 187 168 182 129 144 153 181 183 159 137 131 213 224 228 225 215 216 222 213 213 214 215 213 209 207 207 210 209 217 216 220 230 221 220 230
153 150 152 153 157 169 167 184 190 199 175 178 164 158 181 115 116 95 85 97 156 235 234 225 222 210 213 220 208 209 218 220 217 214 211 211 217 221 228 226 221 225 227 236
156 144 119 134 115 138 180 189 188 205 195 167 172 149 188 177 144 85 19 290 319 344 243 218 211 212 205 213 214 210 218 222 224 226 224 220 224 230 235 230 231 230 226 230
152 138 124 139 160 166 159 168 190 202 188 177 195 164 182 190 211 214 326 9 315 317 313 220 208 207 204 206 216 207 212 221 221 229 229 232 227 229 231 236 232 231 233 232
158 157 155 189 186 185 180 171 173 181 188 182 155 165 173 180 193 243 286 338 323 328 324 263 223 221 214 204 209 215 216 219 226 231 228 227 227 231 233 234 237 235 232 232
185 178 184 190 196 193 196 194 202 196 169 167 166 153 178 192 210 233 295 327 321 321 317 315 275 242 230 225 217 214 219 224 229 231 233 233 230 232 231 235 234 236 234 234
208 178 167 172 194 216 224 217 209 208 209 194 175 185 200 215 233 253 268 282 286 294 306 305 300 293 258 242 236 233 227 224 228 231 229 232 236 234 237 233 234 234 234 233
189 177 174 183 202 225 254 228 221 215 215 213 206 224 236 237 242 249 264 265 268 271 280 289 285 277 283 272 252 248 237 230 232 231 230 236 236 236 237 237 235 236 236 235
200 190 178 163 165 218 222 204 196 193 206 227 234 237 247 255 264 267 268 267 264 258 258 263 271 254 252 267 277 264 255 242 226 231 230 230 226 231 238 237 236 236 237 239
195 190 169 174 195 217 194 203 200 199 237 248 247 246 246 252 258 265 266 267 265 262 255 248 251 252 246 240 248 267 270 257 247 240 233 232 235 239 239 234 233 234 238 242
198 198 190 179 186 205 222 213 220 257 259 246 250 253 253 256 255 255 261 264 266 267 265 257 251 253 252 250 247 247 248 257 253 251 243 241 239 250 256 247 227 229 234 240
174 185 191 191 217 233 199 197 217 225 231 240 249 264 265 259 257 256 256 258 261 263 265 266 262 255 257 254 251 249 249 250 243 252 242 241 244 246 250 241 232 229 232 240
193 189 192 203 210 228 211 218 223 246 262 265 266 269 270 269 267 262 256 257 258 256 259 265 264 259 256 261 257 250 245 244 254 239 245 245 242 245 255 237 233 232 229 231
210 204 200 201 208 201 187 225 249 270 282 283 280 276 274 273 270 269 266 258 259 260 258 255 257 260 259 261 266 259 252 245 241 250 248 239 238 244 240 242 238 232 227 227
224 222 223 218 220 220 222 248 259 268 282 294 299 292 286 284 284 281 275 270 266 259 259 259 258 255 255 255 258 263 258 251 247 244 247 256 249 245 254 254 242 235 228 223
236 231 229 228 234 235 243 249 255 264 277 291 295 288 285 285 291 302 302 286 275 266 259 257 257 257 255 253 252 254 258 256 251 249 247 242 248 253 248 275 278 244 233 223
262 253 243 251 240 239 245 244 257 272 288 300 313 316 310 302 293 293 302 305 293 278 268 262 257 254 255 255 253 251 252 254 256 251 249 249 241 244 254 247 276 272 244 232
Height
3135 3139 3140 3146 3151 3154 3158 3161 3164 3165 3168 3170 3171 3174 3176 3177 3178 3177 3180 3183 3186 3189 3196 3200 3203 3206 3207 3210 3214 3217 3220 3222 3225 3227 3230 3232 3235 3236 3238 3239 3240 3241 3242 3242
3135 3137 3142 3148 3151 3155 3157 3161 3164 3166 3167 3169 3170 3172 3174 3176 3178 3179 3180 3183 3186 3190 3193 3197 3201 3204 3206 3211 3214 3217 3219 3222 3225 3228 3230 3233 3235 3236 3238 3240 3242 3242 3243 3243
3133 3138 3142 3146 3150 3154 3156 3159 3162 3165 3166 3167 3168 3170 3171 3172 3174 3177 3180 3182 3185 3188 3191 3195 3199 3202 3205 3208 3213 3217 3220 3222 3225 3227 3230 3232 3234 3236 3238 3241 3242 3243 3244 3245
3134 3138 3140 3145 3149 3154 3156 3158 3161 3164 3166 3167 3167 3169 3168 3168 3171 3175 3179 3180 3183 3187 3189 3193 3197 3200 3203 3208 3212 3215 3219 3222 3224 3226 3229 3232 3235 3237 3239 3241 3242 3244 3245 3245
3133 3135 3139 3144 3148 3152 3156 3157 3160 3162 3164 3165 3166 3167 3170 3169 3172 3176 3177 3178 3180 3184 3187 3190 3194 3198 3202 3207 3210 3213 3218 3221 3224 3227 3229 3231 3234 3236 3238 3240 3242 3244 3245 3246
3132 3135 3140 3143 3147 3151 3154 3156 3159 3161 3163 3164 3164 3165 3171 3170 3170 3171 3173 3175 3178 3181 3184 3188 3192 3196 3200 3205 3209 3212 3214 3219 3223 3226 3229 3230 3233 3236 3238 3241 3243 3244 3245 3247
3131 3134 3137 3140 3144 3147 3151 3154 3158 3161 3162 3158 3161 3165 3170 3169 3168 3168 3169 3170 3173 3175 3180 3184 3187 3191 3196 3200 3204 3210 3213 3216 3220 3224 3227 3230 3231 3234 3236 3239 3242 3244 3245 3246
3130 3135 3134 3136 3139 3142 3147 3151 3150 3151 3154 3156 3159 3163 3168 3169 3167 3167 3167 3167 3169 3170 3172 3178 3184 3188 3192 3197 3202 3206 3211 3215 3218 3221 3225 3228 3230 3233 3235 3237 3240 3243 3245 3246
3128 3131 3132 3134 3136 3141 3143 3147 3149 3150 3152 3155 3161 3164 3166 3167 3168 3166 3165 3166 3167 3167 3170 3174 3179 3185 3189 3194 3198 3204 3208 3213 3215 3219 3222 3225 3228 3230 3234 3237 3236 3240 3243 3244
3125 3130 3131 3132 3135 3138 3139 3144 3148 3147 3150 3149 3159 3161 3162 3163 3164 3164 3165 3164 3165 3166 3169 3170 3175 3180 3186 3191 3196 3200 3205 3209 3214 3217 3219 3222 3224 3228 3231 3233 3237 3238 3240 3243
3125 3127 3132 3133 3133 3134 3138 3139 3142 3144 3146 3145 3152 3160 3159 3159 3161 3162 3162 3163 3164 3164 3166 3169 3172 3176 3181 3186 3191 3196 3201 3205 3209 3213 3216 3218 3221 3224 3227 3230 3232 3235 3237 3240
3125 3126 3129 3132 3133 3133 3135 3136 3138 3140 3145 3145 3148 3158 3156 3158 3159 3160 3161 3161 3162 3162 3163 3165 3168 3171 3176 3182 3187 3193 3197 3200 3204 3209 3212 3215 3218 3220 3223 3226 3230 3232 3234 3235
3126 3127 3131 3134 3136 3134 3134 3135 3135 3137 3140 3142 3145 3155 3155 3157 3159 3160 3160 3161 3162 3162 3162 3163 3164 3167 3170 3175 3180 3186 3192 3197 3198 3201 3205 3209 3212 3215 3218 3222 3225 3227 3230 3232
3126 3127 3129 3130 3131 3132 3134 3134 3135 3136 3140 3141 3145 3148 3153 3155 3157 3158 3159 3160 3161 3161 3161 3162 3163 3164 3167 3169 3175 3180 3185 3189 3194 3197 3199 3202 3206 3210 3213 3216 3219 3222 3224 3227
3125 3126 3128 3129 3130 3131 3132 3134 3135 3136 3138 3142 3145 3148 3150 3152 3154 3156 3156 3158 3159 3160 3160 3160 3161 3161 3163 3165 3168 3172 3178 3181 3185 3189 3193 3197 3202 3204 3206 3208 3212 3215 3217 3220
3123 3124 3126 3128 3129 3130 3130 3132 3133 3135 3137 3139 3143 3146 3148 3150 3152 3153 3155 3156 3157 3158 3158 3159 3159 3159 3159 3161 3163 3165 3168 3173 3179 3182 3187 3191 3193 3196 3199 3202 3205 3207 3210 3212
3122 3123 3125 3128 3128 3129 3131 3129 3131 3134 3135 3138 3142 3143 3144 3146 3148 3150 3152 3154 3154 3155 3156 3156 3157 3157 3157 3157 3158 3160 3163 3168 3173 3176 3179 3182 3184 3188 3192 3195 3196 3199 3203 3206
3119 3122 3124 3126 3128 3129 3124 3125 3127 3130 3133 3134 3137 3139 3141 3142 3143 3145 3147 3148 3150 3151 3152 3153 3154 3154 3154 3154 3154 3155 3157 3160 3164 3169 3172 3175 3176 3179 3183 3186 3189 3192 3195 3197
3116 3119 3121 3124 3125 3124 3123 3123 3126 3127 3131 3130 3131 3134 3136 3138 3140 3140 3142 3143 3144 3146 3148 3149 3150 3150 3151 3150 3150 3150 3151 3153 3156 3159 3163 3167 3170 3173 3175 3177 3181 3185 3187 3190
3114 3117 3120 3120 3121 3120 3119 3121 3123 3124 3126 3125 3127 3129 3131 3133 3135 3135 3136 3137 3138 3138 3140 3143 3144 3144 3145 3146 3146 3145 3145 3147 3148 3149 3153 3156 3159 3163 3167 3170 3171 3174 3177 3180
3112 3115 3117 3117 3118 3117 3117 3118 3120 3125 3126 3122 3123 3125 3126 3127 3128 3130 3130 3131 3131 3132 3133 3134 3137 3139 3138 3139 3140 3140 3140 3141 3142 3142 3144 3146 3149 3152 3156 3159 3161 3164 3166 3170
3108 3111 3112 3114 3115 3115 3113 3115 3117 3118 3117 3119 3120 3119 3120 3121 3122 3123 3124 3124 3124 3125 3126 3125 3127 3130 3132 3131 3131 3133 3135 3135 3136 3136 3137 3138 3138 3140 3144 3148 3152 3155 3156 3159
3105 3105 3106 3108 3108 3107 3109 3111 3112 3113 3112 3112 3112 3113 3113 3113 3114 3115 3116 3118 3117 3117 3117 3117 3117 3119 3123 3124 3123 3125 3126 3128 3128 3130 3130 3131 3132 3132 3133 3137 3141 3144 3147 3151
3100 3101 3102 3104 3104 3105 3106 3108 3109 3109 3109 3108 3108 3108 3107 3106 3105 3106 3106 3107 3108 3108 3107 3107 3106 3108 3111 3113 3114 3115 3116 3118 3120 3122 3123 3124 3125 3126 3128 3130 3130 3133 3136 3140
3098 3098 3098 3098 3099 3101 3102 3103 3103 3104 3104 3104 3103 3102 3101 3100 3099 3097 3097 3094 3093 3094 3095 3095 3094 3095 3097 3100 3104 3105 3105 3107 3109 3111 3113 3116 3118 3120 3120 3121 3123 3123 3126 3129
3093 3093 3094 3095 3095 3096 3096 3097 3098 3098 3098 3096 3096 3094 3093 3091 3091 3089 3088 3086 3083 3081 3081 3082 3081 3081 3083 3085 3089 3093 3094 3096 3098 3100 3102 3104 3106 3109 3111 3112 3115 3116 3116 3118